sat.trackr.live / text

‹ back to catalog

STARLINK-34429

NORAD 64464 · 2025-130AC

PAYLOAD ACTIVE UNKNOWN

§ Identity

Operator
Country
US
Launch date
2025-06-18
Launch site
AFETR
Launch vehicle
Mass (kg)
RCS (m²)

Purposes: comms

External: N2YO · Heavens-Above · Gunter

§ Orbital elements

Epoch: 2026-09-20T23:33:03.928608Z

Period
93.85 min
Inclination
53.1618°
Eccentricity
0.0000486
Mean motion
15.34404238 rev/d
Perigee alt
462.4 km
Apogee alt
463.0 km
Semi-major
6,840.8 km
B*
2.9470e-4
RAAN
257.1274°
Arg perigee
351.0591°
Mean anomaly
9.0403°
Rev number
7,066

§ Raw data

STARLINK-344291 64464U 25130AC  26263.98129547  .00009595  00000+0  29470-3 0  99912 64464  53.1618 257.1274 0000486 351.0591   9.0403 15.34404238 70669

JSON: /api/v1/satellites/64464 · /tle

For live sub-satellite position, see the globe view (requires WebGL).

§ Visibility from observer

Set your observer location to see the next 7 days of passes ≥ 10°. The values pass through the URL so the page stays shareable.

No JS? Fill the form by hand. The geolocation button needs JavaScript.